Flag for Germany Weather past 2 weeks in Ahrensburg, Schleswig-Holstein, Germany

Now
52 °F

Fog.


Feels Like: 47 °F
Forecast: 43 / 52 °F
Wind: 13 mph from Southwest

Location: Hamburg-Fuhlsbuettel

Current Time: Dec 18, 2014 at 1:59:37 PM

Latest Report: Dec 18, 2014 at 1:20 PM


Visibility: 3 mi

Pressure: 29.65 "Hg

Humidity: 94%

Dew point: 50 °F

Location of AhrensburgLocation

Historic Weather in Ahrensburg — Graph

°F

Ahrensburg temperature yesterday

Maximum temperature yesterday: 46 °F (at 9:20 PM)
Minimum temperature yesterday: 34 °F (at 12:20 AM)
Average temperature yesterday: 38 °F

Past Weeks' High & Low Weather Summary

 TemperatureHumidityPressure
High52 °F (Dec 18, 12:20 PM)100% (Dec 3, 3:20 PM)30.30 "Hg (Dec 3, 3:20 PM)
Low28 °F (Dec 3, 12:20 PM)70% (Dec 10, 4:20 AM)29.18 "Hg (Dec 12, 12:50 PM)
Average39 °F91%29.86 "Hg
* Reported Dec 3 12:20 PM — Dec 18 12:50 PM, Ahrensburg, Weather by CustomWeather, © 2014

Note: Actual official high and low records may vary slightly from our data, if they occured in-between our weather recording intervals... More about our weather records

Advertising

Ahrensburg weather history for previous 24 hours

 ConditionsComfort  
Time TempWeatherWind HumidityBarometerVisibility
12:50 PM
Dec 18
52 °FFog.13 mph94%29.65 "Hg3 mi
12:20 PM52 °FFog.15 mph94%29.65 "Hg3 mi
11:20 AM50 °FDrizzle. Fog.16 mph100%29.68 "Hg2 mi
10:50 AM50 °FDrizzle. Fog.14 mph100%29.68 "Hg1 mi
10:20 AM50 °FDrizzle. Fog.14 mph100%29.68 "Hg1 mi
9:50 AM50 °FFog.13 mph100%29.68 "Hg2 mi
9:20 AM50 °FDrizzle. Fog.14 mph94%29.68 "Hg1 mi
8:50 AM50 °FDrizzle. Fog.13 mph94%29.68 "Hg1 mi
8:20 AM48 °FDrizzle. Fog.13 mph100%29.68 "Hg2 mi
7:50 AM48 °FDrizzle. Fog.10 mph100%29.68 "Hg1 mi
7:20 AM48 °FDrizzle. Fog.8 mph100%29.68 "Hg1 mi
6:50 AM48 °FFog.9 mph100%29.68 "Hg2 mi
6:20 AM48 °FPassing clouds.10 mph94%29.68 "Hg5 mi
5:50 AM48 °FPassing clouds.12 mph94%29.68 "Hg6 mi
5:20 AM46 °FPassing clouds.12 mph100%29.68 "HgN/A
4:20 AM46 °FPartly cloudy.9 mph93%29.68 "HgN/A
3:50 AM46 °FPartly cloudy.9 mph93%29.68 "HgN/A
3:20 AM46 °FPassing clouds.12 mph93%29.68 "HgN/A
2:50 AM46 °FPassing clouds.10 mph93%29.68 "HgN/A
2:20 AM46 °FPassing clouds.9 mph93%29.68 "HgN/A
1:50 AM46 °FPassing clouds.10 mph93%29.65 "HgN/A
1:20 AM45 °FPassing clouds.7 mph93%29.65 "HgN/A
12:50 AM45 °FPartly cloudy.8 mph100%29.65 "HgN/A
12:20 AM45 °FPartly cloudy.8 mph100%29.65 "HgN/A
11:20 PM
Dec 17
45 °FPartly cloudy.7 mph100%29.62 "HgN/A
10:50 PM45 °FPartly cloudy.8 mph100%29.62 "Hg5 mi
10:20 PM46 °FLight rain. Partly cloudy.9 mph93%29.59 "Hg6 mi
9:50 PM45 °FLight rain. Partly cloudy.9 mph100%29.59 "HgN/A
9:20 PM46 °FPartly cloudy.8 mph93%29.59 "HgN/A
8:50 PM45 °FPartly cloudy.6 mph100%29.56 "Hg4 mi
8:20 PM41 °FDrizzle. Fog.2 mph100%29.56 "Hg3 mi
7:50 PM41 °FDrizzle. Fog.5 mph100%29.53 "Hg3 mi
7:20 PM39 °FDrizzle. Fog.7 mph100%29.53 "Hg2 mi
6:50 PM39 °FDrizzle. Fog.7 mph100%29.50 "Hg2 mi
6:20 PM39 °FDrizzle. Fog.8 mph100%29.50 "Hg2 mi
5:50 PM39 °FDrizzle. Fog.8 mph100%29.50 "Hg2 mi
5:20 PM39 °FFog.8 mph93%29.50 "Hg2 mi
4:50 PM37 °FFog.9 mph100%29.50 "Hg2 mi
4:20 PM37 °FLight rain. Fog.10 mph100%29.50 "Hg3 mi
3:50 PM37 °FLight rain. Partly sunny.10 mph100%29.50 "Hg3 mi
3:20 PM37 °FLight rain. Partly sunny.12 mph100%29.50 "Hg4 mi
2:50 PM37 °FLight rain. Partly sunny.13 mph100%29.50 "Hg4 mi
2:20 PM37 °FLight rain. Partly sunny.14 mph100%29.50 "Hg4 mi
1:50 PM37 °FLight rain. Partly sunny.13 mph100%29.53 "Hg4 mi
1:20 PM37 °FLight rain. Partly sunny.14 mph100%29.53 "Hg4 mi
Weather by CustomWeather, © 2014

See weather overviewHow to use our weather pages